Dewpoint
72 73 73 73 72 70 67 67 69 69 71 69 70 69 68 68 68 67 69 69 67 65 66 63 66 65 64 62 61 65 65 65 66 63 66 65 69 75 75 75 74 74 74 75 74 74 74 74 73 73 73 74 74 74 74 74 75 75 75 76 76 76 76 76 76 76 76 76 76 77 77 77 77 77 77 77 76 76 76 76 76 76 75 74 73
72 72 73 71 70 70 69 68 68 70 69 70 69 68 67 67 68 68 67 69 68 67 67 64 60 61 63 63 61 59 64 63 64 63 65 65 67 74 76 75 75 74 74 74 75 75 75 74 74 74 75 74 74 75 75 75 76 76 76 76 77 76 77 77 77 77 77 76 77 77 77 77 77 77 77 77 77 77 76 77 77 76 75 74 74
71 73 71 70 70 70 68 70 68 68 70 69 70 71 69 67 67 67 70 71 68 66 66 66 65 61 62 60 60 62 61 63 60 59 58 64 67 69 75 76 75 75 75 75 75 75 75 75 75 75 75 76 76 76 76 77 77 77 77 77 77 77 77 77 78 78 78 77 77 77 77 78 78 77 77 77 77 77 77 77 77 76 76 75 75
73 71 71 68 68 68 70 71 69 69 71 70 70 71 70 69 71 72 72 71 69 66 68 63 63 60 63 59 61 61 60 61 55 55 58 63 65 67 69 74 75 75 75 75 75 76 76 76 76 76 76 76 77 77 77 77 77 77 77 77 77 77 77 77 78 78 78 78 78 78 78 78 78 78 77 77 77 77 77 77 76 76 76 76 76
72 72 71 68 69 69 69 71 72 72 71 70 71 72 69 69 70 70 69 71 67 67 64 62 62 62 62 59 60 60 62 61 62 59 57 61 63 64 67 68 74 75 75 76 75 75 75 76 76 77 77 77 77 78 78 78 78 78 78 78 78 78 78 77 78 76 76 78 79 79 79 78 78 78 78 78 78 78 77 77 77 76 76 76 76
73 73 69 68 70 71 71 71 72 72 72 71 68 69 67 68 67 68 68 69 65 66 63 63 60 60 61 59 61 63 62 58 59 58 60 60 62 66 65 66 68 73 75 75 75 75 75 75 76 77 78 77 78 78 78 78 78 78 78 78 78 79 79 77 75 77 78 77 79 79 79 79 79 78 78 78 78 78 78 78 77 77 77 77 76
74 73 71 69 68 70 71 71 72 73 69 71 70 70 69 68 67 69 69 67 66 65 64 64 62 61 62 63 60 60 62 59 61 59 59 64 65 62 66 66 67 68 68 71 75 75 76 75 76 76 76 77 77 77 78 78 78 78 78 78 79 79 79 78 79 78 78 78 79 79 79 79 79 79 79 78 78 78 78 78 78 77 77 77 76
75 74 70 71 69 70 70 72 73 72 72 73 72 70 70 70 70 70 68 66 66 63 64 65 62 60 60 63 62 63 61 61 61 58 59 63 64 65 66 68 68 67 66 66 68 77 76 74 74 75 76 76 76 77 77 77 78 78 79 79 79 79 79 79 79 79 79 79 78 79 79 79 79 79 79 79 79 79 79 79 78 78 78 77 77
75 75 74 72 70 70 71 72 74 73 73 71 70 69 70 65 72 72 71 69 65 61 62 63 60 59 58 58 59 64 63 64 61 61 60 64 64 60 62 64 67 65 67 68 68 71 76 76 76 77 77 77 77 77 77 77 77 77 77 77 78 79 79 80 80 79 79 79 79 79 79 79 79 79 79 79 79 79 78 78 78 78 78 78 77
75 74 75 73 72 71 72 73 74 74 74 71 71 69 71 69 70 72 71 71 67 64 62 62 57 54 59 57 62 60 62 63 64 64 63 63 63 63 62 60 63 62 62 65 63 67 69 76 76 77 77 77 77 77 77 77 77 77 77 77 78 78 78 78 79 78 78 79 79 79 79 79 79 79 79 79 79 79 79 78 78 78 78 78 78
74 75 75 72 71 72 73 74 74 74 74 71 70 72 72 72 72 71 72 70 69 68 65 65 58 55 54 57 59 64 64 61 64 63 60 59 59 64 57 64 60 62 65 65 62 64 67 69 72 74 77 76 78 78 78 78 77 77 77 77 78 78 78 78 79 79 79 79 80 80 79 79 79 79 79 79 79 79 79 79 79 79 79 78 78
75 75 75 73 72 72 73 73 74 74 74 71 70 70 73 73 73 70 71 69 69 67 65 64 62 61 61 60 60 61 62 62 62 61 63 60 61 61 58 58 61 62 61 63 63 59 65 69 71 68 68 74 77 77 78 77 78 78 78 78 77 77 78 79 78 79 79 79 80 80 79 79 79 79 79 79 79 79 79 78 78 79 79 78 78
74 74 73 73 74 73 73 74 74 74 73 72 72 72 74 73 72 74 68 69 67 64 64 64 62 59 61 59 60 61 60 61 61 59 58 58 58 57 58 59 60 62 65 62 62 61 62 69 69 70 69 70 76 77 77 77 77 77 78 78 77 78 78 79 79 79 79 79 80 80 79 79 79 79 79 79 78 79 78 78 78 78 78 78 78
74 75 76 74 74 72 73 74 74 74 74 74 75 74 75 73 71 70 70 67 67 64 64 66 59 54 56 57 54 57 61 59 57 56 57 57 57 59 61 56 54 57 61 65 65 62 62 66 70 68 70 71 71 70 72 79 80 78 78 79 77 77 78 78 79 79 79 80 80 79 79 79 79 79 79 79 78 79 78 78 78 78 78 78 78
75 74 75 73 73 73 73 73 75 74 74 73 73 73 73 71 72 69 68 68 66 66 69 66 60 57 60 60 51 52 56 57 56 56 54 55 55 54 55 53 54 57 61 63 64 66 59 62 65 68 72 75 71 70 70 73 72 78 77 77 77 77 77 78 79 80 80 80 79 79 79 79 79 79 79 78 79 79 78 78 78 78 78 78 78
73 72 73 73 74 73 73 73 76 76 73 74 74 72 73 72 71 72 71 68 64 64 65 67 65 61 59 57 53 49 50 58 58 55 54 53 52 51 52 52 54 57 62 60 57 63 65 66 64 70 74 74 74 71 69 69 73 78 79 79 77 77 77 78 79 80 80 79 79 79 79 79 79 79 79 79 79 79 78 78 78 78 78 78 78
73 73 73 75 75 74 74 75 75 74 73 72 72 70 71 72 73 73 72 68 67 65 66 64 66 67 65 63 53 51 54 54 48 57 52 50 51 51 54 53 53 58 57 58 60 63 59 60 65 69 73 75 75 74 72 74 73 76 78 78 78 77 77 78 79 79 79 79 79 79 78 78 78 78 78 78 78 78 78 78 78 78 77 78 78
73 73 74 74 75 76 76 75 74 73 73 72 71 71 72 73 74 72 72 73 72 68 65 66 64 68 69 64 66 63 60 61 53 59 60 52 53 52 54 53 53 56 62 59 59 59 63 61 64 67 68 69 73 74 74 73 74 73 76 75 77 77 78 79 78 78 78 79 79 78 78 78 78 77 77 77 77 78 78 78 78 77 77 77 78
71 73 74 75 76 76 77 75 74 73 73 73 71 70 70 71 74 74 73 74 74 72 68 64 66 67 61 62 63 63 61 61 61 58 60 60 57 54 55 55 54 54 54 54 56 57 61 64 60 59 65 72 73 71 73 73 73 77 77 77 77 78 78 77 77 78 78 78 78 78 78 77 77 77 77 77 77 77 78 78 78 78 77 78 78
71 74 75 75 76 76 76 76 75 74 73 72 71 71 73 74 74 75 75 75 75 72 70 68 67 66 64 63 63 62 62 61 61 59 58 60 60 57 56 56 56 57 58 56 56 58 61 63 61 61 67 72 74 73 73 73 73 74 73 76 78 78 78 77 77 77 78 77 78 77 78 77 77 77 77 77 76 76 77 77 77 77 78 77 77
72 72 73 75 75 75 76 76 75 74 73 72 71 71 72 74 75 75 74 75 74 73 73 72 68 65 68 70 65 63 61 62 62 62 60 60 60 62 61 59 58 60 61 60 60 60 61 63 64 61 70 73 72 72 71 73 73 75 74 77 78 79 78 77 77 77 77 78 78 78 78 77 77 77 77 76 76 77 77 77 77 77 77 77 77
71 73 74 74 75 76 75 74 74 72 72 73 73 74 73 74 74 72 75 74 75 73 73 72 69 68 67 67 69 66 65 64 62 61 60 63 62 58 57 57 60 60 63 61 62 62 63 64 63 63 68 71 72 71 73 74 74 69 74 77 77 78 78 77 77 77 77 77 77 77 77 76 77 77 77 77 77 76 76 77 77 77 77 77 77
66 71 71 71 73 74 73 72 73 73 73 74 73 70 70 72 72 74 75 75 73 74 72 72 70 71 68 68 66 62 65 62 65 63 62 62 65 59 57 58 58 58 63 63 64 63 65 65 64 64 70 71 73 72 74 73 74 75 76 77 76 76 77 76 77 76 76 76 75 76 76 76 76 76 76 76 76 76 76 76 76 77 77 77 77
68 67 69 67 71 71 73 73 74 74 73 73 73 72 71 72 73 74 75 75 75 74 73 72 70 70 67 63 64 62 63 62 61 64 65 65 63 62 59 63 62 60 60 66 65 64 65 65 66 67 69 71 73 73 73 72 77 75 75 76 75 75 75 76 76 76 76 75 75 75 76 75 76 76 76 76 76 76 76 76 76 76 76 76 77
68 65 66 68 70 72 73 73 73 74 75 75 74 75 75 73 73 73 74 75 74 75 73 72 70 69 68 66 65 62 62 63 61 60 63 64 64 62 61 62 62 60 63 63 64 63 65 65 66 67 68 71 70 72 71 70 73 75 76 76 73 75 75 75 75 75 75 74 74 75 75 75 76 76 75 76 76 76 76 75 76 76 76 76 75
67 68 66 65 66 69 72 72 74 75 76 77 75 76 76 75 75 74 73 75 75 75 74 71 72 71 69 65 65 63 63 63 65 63 61 61 62 63 66 65 62 59 62 67 68 62 63 65 66 70 71 70 71 71 71 69 71 76 76 74 74 73 73 74 75 74 76 75 74 75 75 75 75 76 76 76 76 76 76 75 76 76 76 76 76
67 69 70 69 68 69 70 71 72 73 75 76 73 75 77 76 75 76 76 74 75 74 72 71 68 70 71 69 66 65 62 65 64 62 63 63 62 63 66 66 64 61 61 64 66 65 63 65 65 67 72 73 73 73 71 69 72 76 77 75 73 72 73 73 73 74 74 75 74 75 75 75 75 75 76 76 76 76 75 75 76 75 75 75 75
69 70 70 71 70 70 71 71 72 72 74 75 76 74 76 75 76 76 75 71 74 75 73 71 70 71 70 70 70 66 65 64 65 65 66 67 66 66 67 68 68 66 64 62 63 62 64 64 65 69 71 73 72 73 71 70 67 76 78 71 73 74 72 72 73 73 73 73 73 74 74 74 75 75 75 76 76 76 75 75 75 75 75 74 74
67 69 70 72 71 71 70 68 70 72 73 75 74 75 75 75 74 76 75 72 74 75 73 73 73 70 69 70 69 67 67 68 67 66 69 71 67 67 67 66 70 70 67 66 67 64 64 64 62 75 73 73 73 70 72 70 72 72 69 70 69 73 72 71 71 72 72 72 72 72 73 74 74 75 75 75 75 75 75 75 75 74 74 73 73
68 66 70 69 72 72 71 71 70 71 72 72 74 74 75 74 74 76 74 76 75 76 75 73 72 72 71 70 69 67 68 67 65 65 69 74 69 68 68 70 71 69 70 68 68 67 65 64 64 72 76 72 71 70 69 68 73 69 69 68 68 69 71 71 71 71 71 71 71 72 73 73 73 73 74 74 74 74 74 74 74 74 74 73 72
70 71 71 69 71 72 73 71 70 71 72 72 74 75 75 75 74 73 74 77 76 75 75 74 72 72 72 72 73 70 70 68 68 66 68 71 71 69 69 71 72 73 73 72 70 69 68 66 65 66 67 71 67 66 64 65 68 68 67 69 70 72 72 74 72 71 71 71 70 71 71 72 72 72 72 72 73 73 73 73 73 73 73 72 72
69 70 71 70 69 69 69 68 67 68 70 71 71 73 74 74 72 70 71 75 76 76 73 71 69 71 73 73 73 72 70 70 69 68 69 71 71 70 71 71 72 73 73 73 73 71 67 65 67 67 67 69 71 68 67 62 67 72 68 68 74 72 75 76 72 72 71 71 70 70 70 70 70 70 71 72 72 72 73 72 72 71 71 71 70
70 69 70 71 70 70 69 70 67 69 73 73 72 73 74 75 74 74 75 76 77 75 75 74 72 72 73 73 73 72 73 72 70 68 67 68 71 71 71 70 70 72 72 73 73 71 71 70 70 67 67 68 67 70 67 64 62 64 68 66 69 66 64 64 70 71 71 70 70 70 69 69 69 69 70 71 72 72 71 71 69 68 69 69 68
71 69 71 69 70 69 69 69 70 69 73 75 72 72 74 74 74 71 72 75 77 76 75 75 74 72 73 74 73 72 73 73 71 68 68 66 67 68 68 69 69 70 72 72 72 71 70 71 69 69 68 69 67 70 69 66 64 67 65 65 63 63 63 67 67 71 70 71 70 70 70 69 69 69 70 70 71 70 70 69 67 66 67 67 66
70 70 70 70 71 71 70 70 72 71 73 73 73 72 73 74 74 73 70 72 73 73 74 75 73 73 72 73 72 72 69 70 71 70 69 67 67 68 68 69 70 70 71 73 73 72 71 70 71 68 68 70 70 69 69 67 69 68 70 66 62 61 62 65 64 62 70 71 71 70 70 70 69 69 68 68 69 69 68 67 65 64 65 65 64
68 71 70 71 72 74 71 72 72 73 72 72 72 72 73 74 74 74 74 74 73 72 73 73 72 73 72 72 71 71 71 71 72 72 71 70 70 71 70 72 72 72 72 72 75 74 72 71 72 70 69 69 70 70 67 68 66 68 67 68 66 65 66 64 64 63 70 70 71 71 71 70 69 68 68 67 67 66 65 65 64 64 63 63 63
68 69 71 72 72 74 71 71 72 72 72 72 72 71 71 72 73 72 73 73 74 74 74 74 74 74 74 73 72 72 72 72 72 71 70 71 71 70 70 71 71 71 71 71 72 74 74 73 71 72 73 72 71 72 71 69 67 68 71 72 69 68 70 66 62 61 71 70 71 70 70 70 70 69 68 67 66 66 65 65 64 63 63 62 61
68 68 70 71 70 73 73 71 71 72 73 72 73 73 71 71 72 72 73 73 73 73 73 73 73 73 73 73 72 72 72 71 71 71 73 73 72 71 71 71 70 70 72 73 73 74 74 73 73 71 73 70 72 72 71 72 69 67 68 70 71 74 74 70 67 63 63 65 66 71 70 69 69 68 69 67 66 66 65 64 64 63 62 61 60
66 67 68 70 71 71 72 71 69 71 73 72 74 75 74 73 73 73 72 72 72 72 73 72 71 71 71 71 72 72 72 72 71 71 71 72 70 71 72 73 72 72 70 71 71 72 72 71 71 71 71 70 71 70 72 74 73 72 71 71 71 71 73 74 73 70 69 68 70 70 70 71 71 71 66 66 66 66 64 63 63 63 62 61 59
65 65 67 67 69 70 70 71 70 71 72 73 75 76 75 73 72 72 73 72 71 71 71 72 71 70 71 70 70 70 71 72 72 72 73 71 72 71 71 71 72 72 71 70 70 71 71 70 69 69 69 70 71 71 70 72 73 74 73 72 70 71 73 74 75 73 73 72 71 65 70 70 71 70 66 66 65 64 64 64 64 63 62 60 60
65 66 66 67 68 69 70 70 71 70 69 71 72 73 74 74 74 72 71 72 72 72 72 71 71 71 71 70 69 69 71 73 73 75 75 76 73 74 75 76 74 74 75 73 71 72 73 72 72 73 72 72 71 71 69 69 69 70 72 71 73 73 73 72 73 74 74 72 71 69 70 70 69 74 74 71 68 66 63 63 63 63 62 60 60
69 69 69 69 68 69 69 70 71 70 69 71 74 76 76 74 73 71 70 72 72 72 72 72 71 70 70 70 69 73 74 73 74 78 77 77 76 73 73 74 74 74 75 74 76 73 73 71 72 72 71 71 72 73 71 68 70 73 72 73 72 71 73 73 73 74 74 73 71 73 72 71 69 71 71 68 63 63 62 61 60 60 60 60 60
70 71 69 68 68 68 68 69 70 70 70 72 76 69 70 72 73 72 72 72 73 74 72 73 73 71 70 70 70 71 74 76 76 78 78 78 78 78 78 77 77 76 75 75 75 73 74 72 72 72 71 71 71 71 68 66 67 69 70 72 72 73 73 72 71 73 76 75 74 73 72 72 72 70 71 66 60 60 58 59 61 60 59 59 59
73 70 69 70 71 68 67 68 68 68 69 74 69 68 69 69 73 73 72 71 72 72 72 71 70 70 70 69 68 67 68 69 71 76 77 78 78 77 76 75 76 77 77 76 75 75 74 73 73 72 71 71 72 72 69 67 69 73 75 74 73 73 73 71 71 70 75 75 73 72 71 72 71 69 72 65 60 56 57 60 60 59 59 59 59
71 73 72 72 71 69 68 69 68 68 67 71 67 67 67 67 68 73 71 72 72 72 72 73 72 71 72 71 70 68 66 71 71 73 76 77 75 74 74 75 75 75 72 72 74 75 74 73 72 72 71 73 72 71 70 73 76 73 74 71 72 72 72 72 72 72 73 73 72 71 70 70 70 69 71 66 62 60 57 60 60 59 59 58 58
73 73 74 72 70 72 72 71 71 70 70 71 66 66 66 66 66 70 72 72 72 72 72 73 72 72 75 74 74 73 72 72 73 75 77 77 77 77 76 76 73 74 75 75 73 75 76 75 74 72 75 74 73 73 76 77 75 73 72 71 73 71 71 72 74 74 73 70 69 69 69 68 68 67 70 68 61 59 59 60 59 59 58 58 57
73 72 73 71 72 72 71 70 72 71 70 63 64 65 65 65 66 69 72 72 72 73 73 73 74 74 74 73 75 75 75 76 76 78 77 76 76 74 74 73 73 73 74 73 74 75 75 72 72 71 74 76 75 75 76 77 75 75 74 74 74 73 74 75 74 73 70 69 69 68 68 67 68 66 68 69 62 60 59 59 59 59 58 58 57
71 70 71 72 72 72 72 72 73 72 71 62 61 62 63 64 67 71 73 74 74 74 74 73 74 76 76 76 76 75 74 75 77 75 76 76 75 74 74 74 74 73 73 73 70 71 79 76 75 74 74 76 70 77 77 75 75 76 75 75 75 75 73 71 69 70 67 65 66 66 65 66 67 59 63 68 64 63 62 58 60 59 59 58 58
72 72 71 72 72 73 72 72 72 72 71 64 59 59 60 61 66 72 73 74 74 73 73 73 75 75 75 75 74 73 73 75 74 69 70 76 74 73 74 73 73 72 73 73 68 67 65 63 63 64 65 66 65 65 65 65 73 75 75 74 72 72 71 70 67 67 66 63 60 64 63 63 63 62 57 64 66 63 61 61 61 59 58 58 58
69 69 70 71 72 72 72 71 71 72 72 67 60 59 59 61 67 72 72 73 73 74 73 73 76 76 74 75 75 73 74 76 71 67 66 74 75 73 73 73 73 73 73 72 71 70 65 65 65 65 66 66 67 67 67 67 68 73 73 71 72 71 71 70 66 66 64 61 59 62 68 59 60 63 57 60 65 64 59 61 62 61 58 57 57
69 70 71 71 72 71 71 72 71 72 72 67 57 57 58 60 68 72 73 73 74 74 74 73 73 74 74 75 75 75 75 74 68 65 64 73 73 73 74 73 73 73 73 73 75 72 72 73 73 74 73 72 75 75 72 73 72 71 73 72 71 69 68 67 66 65 64 58 58 64 66 61 58 59 59 59 56 59 63 63 61 61 60 59 60